User: anonymous   Login
Location: Great Northern Moose Lodge
(44.6765°N, 71.1811°W)
Time: 19:26:22
(UTC-05:00)
Language:

Terra - Orbit

View from above orbital plane
View from above orbital plane
View from above satellite
View from above satellite

Ground track
Ground track

The orbit data is extracted from the following two-line orbital elements,

1 25994U 99068A   15057.52250724  .00000718  00000-0  16941-3 0  9996
2 25994 098.2122 133.5717 0001161 085.5847 274.5485 14.57132635808107
Epoch (UTC): 26 February 2015 12:32:24
Eccentricity: 0.0001161
inclination: 98.2122°
perigee height: 701 km
apogee height: 703 km
right ascension of ascending node: 133.5717°
argument of perigee: 85.5847°
revolutions per day: 14.57132635
mean anomaly at epoch: 274.5485°
orbit number at epoch: 80810

The dashed part of the orbit path shows where the satellite is in the earth's shadow,  

DLR